DateTimeUTC,F1_A11,F1_S11,BsB_S11,BsG_S11,BsR_S11,BbsB_S11,BbsG_S11,BbsR_S11,BaB_A11,BaG_A11,BaR_A11,Tu_S11,T_S11,Uu_S11,U_S11,P_S11,T1_A11
2021-02-07T02:00:00Z,00000200,21000000,,,,,,,-000.10,-000.21,-000.07,15.9,23.2,,00.0,0655.8,30.9
2021-02-07T02:01:00Z,00000200,21000000,,,,,,,0000.28,0000.26,0000.08,15.9,23.2,,00.0,0655.8,30.9
2021-02-07T02:02:00Z,00000200,21000000,,,,,,,0000.53,0000.40,0000.11,15.9,23.2,,00.0,0655.8,30.9
2021-02-07T02:03:00Z,00000200,61000000,,,,,,,0000.02,0000.56,0000.67,15.9,23.2,,00.0,0655.8,30.9
2021-02-07T02:04:00Z,00000200,41000000,0000.18,0000.44,0000.01,0000.76,0000.11,0000.01,0000.60,0000.22,0000.16,16.4,23.2,,00.0,0656.6,30.9
2021-02-07T02:05:00Z,00000200,01000000,0000.57,0000.26,0000.17,0000.11,0000.11,-000.09,-000.14,0000.25,0000.09,16.5,23.2,,00.0,0656.7,30.9
2021-02-07T02:06:00Z,00000200,01000000,0000.21,0000.37,0000.32,-000.21,0000.10,-000.11,-000.14,-000.22,0000.31,16.6,23.2,,00.0,0656.7,31.0
2021-02-07T02:07:00Z,00000200,01000000,0000.55,0000.05,0000.31,0000.51,-000.02,0000.20,0000.21,0000.48,-000.18,16.7,23.3,,00.0,0656.8,31.0
2021-02-07T02:08:00Z,00000200,01000000,0000.35,0000.06,0000.34,0000.26,0000.05,0000.16,0000.14,0000.10,0000.18,16.8,23.3,,00.0,0656.8,31.0
2021-02-07T02:09:00Z,00000200,01000000,0000.05,0000.20,0000.27,0000.60,-000.02,0000.45,0000.36,-000.00,-000.19,16.9,23.4,,00.0,0656.8,31.0
2021-02-07T02:10:00Z,00000200,01000000,-000.15,0000.30,-000.07,0000.51,0000.28,-000.08,0000.19,0000.10,0000.35,17.0,23.4,,00.0,0656.8,31.0
2021-02-07T02:11:00Z,00000200,01000000,0000.53,0000.18,0000.38,0000.30,0000.21,0000.07,-000.05,-000.08,-000.26,17.0,23.4,,00.0,0656.9,31.0
2021-02-07T02:12:00Z,00000200,01000000,0000.07,0000.42,-000.17,0000.01,0000.42,0000.10,-000.02,0000.03,0000.16,17.1,23.5,,00.0,0656.9,31.0
2021-02-07T02:13:00Z,00000200,01000000,0000.56,0000.02,0000.39,0000.63,0000.15,0000.21,0000.25,-000.06,-000.11,17.0,23.5,,00.0,0656.9,31.0
2021-02-07T02:14:00Z,00000200,01000000,-000.02,0000.34,0000.18,0000.11,-000.33,0000.14,0000.08,0000.22,0000.07,17.0,23.4,,00.0,0656.9,31.0
2021-02-07T02:15:00Z,00000200,01000000,-000.59,0000.43,-000.02,0000.23,-000.06,0000.03,0000.08,0000.54,0000.05,17.0,23.4,,00.0,0656.9,31.0
2021-02-07T02:16:00Z,00000200,01000000,0001.17,0000.42,-000.07,0000.05,-000.02,-000.07,0000.32,0000.10,0000.25,16.9,23.4,,00.0,0656.9,31.0
2021-02-07T02:17:00Z,00000200,01000000,-000.08,0000.14,0000.01,0000.23,0000.16,0000.01,0000.23,0000.16,0000.14,16.9,23.4,,00.0,0656.9,31.0
2021-02-07T02:18:00Z,00000200,01000000,0000.09,0000.41,0000.06,0000.52,0000.06,0000.11,0000.15,-000.29,-000.29,16.9,23.4,,00.0,0656.9,31.0
2021-02-07T02:19:00Z,00000200,01000000,0000.35,0000.29,0000.10,-000.23,-000.05,0000.16,-000.16,0000.49,0000.50,16.8,23.4,,00.0,0656.9,30.9
2021-02-07T02:20:00Z,00000200,01000000,-000.29,0000.25,0000.31,0000.36,0000.01,0000.05,0000.29,0000.04,0000.20,16.8,23.4,,00.0,0656.9,30.9
2021-02-07T02:21:00Z,00000200,01000000,-000.59,0000.36,0000.27,-000.40,-000.03,0000.10,-000.00,0000.50,-000.19,16.8,23.3,,00.0,0656.9,30.9
2021-02-07T02:22:00Z,00000200,01000000,0000.75,0000.05,0000.17,0000.18,0000.14,0000.13,0000.35,-000.75,-000.19,16.7,23.3,,00.0,0656.9,30.9
2021-02-07T02:23:00Z,00000200,01000000,-000.09,0000.16,0000.15,-000.15,-000.07,0000.00,0000.07,0000.28,0000.17,16.7,23.3,,00.0,0656.9,30.9
2021-02-07T02:24:00Z,00000200,01000000,-000.59,0000.28,-000.11,0000.44,0000.21,0000.10,0000.07,0000.03,0000.22,16.7,23.3,,00.0,0657.0,30.9
2021-02-07T02:25:00Z,00000200,01000000,0000.22,-000.20,-000.00,0000.24,-000.14,0000.03,-000.15,0000.41,0000.00,16.6,23.3,,00.0,0657.0,30.9
2021-02-07T02:26:00Z,00000200,01000000,0000.05,0000.15,0000.04,-000.22,0000.08,0000.05,0000.00,-000.42,-000.01,16.6,23.3,,00.0,0657.0,30.9
2021-02-07T02:27:00Z,00000200,01000000,-000.05,0000.05,0000.38,0000.00,0000.00,0000.14,0000.22,0000.26,0000.30,16.6,23.3,,00.0,0657.0,30.9
2021-02-07T02:28:00Z,00000200,01000000,0000.31,0000.13,0000.37,0000.04,0000.04,0000.05,-000.17,0000.12,-000.09,16.5,23.2,,00.0,0657.0,30.9
2021-02-07T02:29:00Z,00000200,01000000,0000.92,0000.30,-000.12,0000.76,0000.01,-000.00,0000.49,0000.10,0000.00,16.5,23.2,,00.0,0657.1,30.9
2021-02-07T02:30:00Z,00000200,01000000,0000.25,0000.30,0000.08,0000.41,0000.16,0000.25,-000.18,-000.20,0000.16,16.5,23.2,,00.0,0657.0,30.9
2021-02-07T02:31:00Z,00000200,01000000,0000.46,0000.55,0000.20,0000.18,0000.11,0000.02,-000.06,-000.09,0000.05,16.5,23.2,,00.0,0657.1,30.9
2021-02-07T02:32:00Z,00000200,01000000,-000.04,0000.12,0000.13,-000.44,0000.06,0000.21,0000.16,0000.24,-000.19,16.4,23.2,,00.0,0657.0,30.9
2021-02-07T02:33:00Z,00000200,01000000,0000.80,0000.31,0000.26,0000.33,0000.07,0000.05,0000.32,0000.40,0000.32,16.4,23.1,,00.0,0657.0,30.9
2021-02-07T02:34:00Z,00000200,01000000,-000.04,0000.38,-000.08,0000.59,0000.27,0000.15,-000.06,0000.27,0000.27,16.4,23.1,,00.0,0657.0,30.9
2021-02-07T02:35:00Z,00000200,01000000,0000.33,0000.15,0000.03,0000.38,-000.10,-000.15,0000.08,-000.49,-000.12,16.4,23.1,,00.0,0657.0,30.9
2021-02-07T02:36:00Z,00000200,01000000,0000.15,0000.05,-000.03,0000.21,0000.23,-000.13,0000.17,0000.73,0000.48,16.4,23.1,,00.0,0657.0,30.9
2021-02-07T02:37:00Z,00000200,01000000,-000.49,0000.61,0000.25,0000.31,0000.30,0000.23,0000.09,-000.43,-000.28,16.3,23.1,,00.0,0657.0,30.9
2021-02-07T02:38:00Z,00000200,01000000,0000.57,0000.49,0000.27,0000.06,0000.04,0000.22,0000.68,0000.46,0000.23,16.3,23.1,,00.0,0657.0,30.9
2021-02-07T02:39:00Z,00000200,01000000,-000.50,-000.07,-000.03,0000.36,-000.14,0000.14,-000.24,0000.19,-000.22,16.3,23.1,,00.0,0657.0,30.9
2021-02-07T02:40:00Z,00000200,01000000,0000.66,0000.52,0000.07,0000.33,0000.02,0000.12,0000.29,0000.42,0000.47,16.3,23.1,,00.0,0657.0,30.9
2021-02-07T02:41:00Z,00000200,01000000,-000.12,0000.15,-000.08,-000.12,0000.05,0000.21,0000.29,-000.36,0000.11,16.2,23.0,,00.0,0657.0,30.9
2021-02-07T02:42:00Z,00000200,01000000,-000.11,0000.22,0000.04,0000.40,-000.00,-000.09,0000.00,0000.34,0000.02,16.2,23.0,,00.0,0657.0,30.9
2021-02-07T02:43:00Z,00000200,01000000,0000.64,0000.37,0000.18,0000.20,0000.06,0000.13,0000.24,0000.16,0000.08,16.2,23.0,,00.0,0657.0,30.9
2021-02-07T02:44:00Z,00000200,01000000,0000.27,0000.49,0000.13,-000.15,-000.02,0000.04,0000.29,0000.24,-000.03,16.2,23.0,,00.0,0657.0,30.9
2021-02-07T02:45:00Z,00000200,01000000,-000.15,-000.02,0000.09,0000.08,-000.23,0000.25,0000.31,0000.09,0000.43,16.2,23.0,,00.0,0657.0,30.9
2021-02-07T02:46:00Z,00000200,01000000,-000.13,0000.24,0000.16,0000.00,-000.02,0000.07,-000.13,-000.05,-000.07,16.1,22.9,,00.0,0657.0,30.9
2021-02-07T02:47:00Z,00000200,01000000,0000.39,0000.39,0000.46,0000.00,0000.09,0000.01,-000.26,0000.41,-000.25,16.1,22.9,,00.0,0657.0,30.9
2021-02-07T02:48:00Z,00000200,01000000,0000.16,0000.29,0000.13,0000.59,0000.09,0000.05,0000.59,0000.15,0000.66,16.1,22.9,,00.0,0657.0,30.9
2021-02-07T02:49:00Z,00000200,01000000,0000.01,0000.22,-000.02,0000.26,-000.05,0000.04,0000.08,0000.15,0000.31,16.1,22.9,,00.0,0657.0,30.9
2021-02-07T02:50:00Z,00000200,01000000,0000.36,0000.34,0000.13,0000.45,0000.10,0000.43,0000.11,-000.17,-000.06,16.1,22.9,,00.0,0657.1,30.9
2021-02-07T02:51:00Z,00000200,01000000,0000.39,0000.31,0000.19,0000.05,0000.05,0000.27,0000.45,0000.79,-000.23,16.1,22.9,,00.0,0657.0,30.9
2021-02-07T02:52:00Z,00000200,01000000,-000.03,0000.12,0000.26,-000.05,0000.14,0000.14,0000.46,-000.24,0000.88,16.0,22.9,,00.0,0657.1,30.9
2021-02-07T02:53:00Z,00000200,01000000,-000.06,0000.40,-000.16,0000.13,-000.03,0000.07,-000.15,0000.37,-000.53,16.0,22.8,,00.0,0657.1,30.9
2021-02-07T02:54:00Z,00000200,01000000,-000.12,0000.66,0000.16,0000.10,0000.05,0000.08,0000.14,0000.10,-000.03,16.0,22.8,,00.0,0657.1,30.9
2021-02-07T02:55:00Z,00000200,01000000,-000.48,0000.44,0000.04,0000.10,-000.36,0000.25,0000.12,0000.05,-000.05,16.0,22.8,,00.0,0657.1,30.9
2021-02-07T02:56:00Z,00000200,01000000,-000.60,0000.13,0000.10,-000.08,0000.21,0000.36,0000.03,0000.27,0000.52,16.0,22.8,,00.0,0657.1,30.9
2021-02-07T02:57:00Z,00000200,41000000,,,,,,,-000.30,-000.71,-000.58,16.0,22.9,,00.0,0657.1,30.9
2021-02-07T02:58:00Z,00000200,61000000,,,,,,,0000.27,-000.05,0000.42,15.6,22.9,,00.0,0656.2,30.9
2021-02-07T02:59:00Z,00000200,21000000,,,,,,,-000.54,-000.39,-000.60,15.6,23.0,,00.0,0656.2,30.9
